Weather History for Jackson, MS

Change the Weather History Date:

Thursday, May 29, 2014

  Actual Average Record
Temperature  
Mean Temperature 76 °F 76 °F  
Max Temperature 82 °F 86 °F 99 °F (1911)
Min Temperature 69 °F 65 °F 51 °F (1961)
Degree Days  
Heating Degree Days 0 0  
Month to date heating degree days 20 10  
Since 1 July heating degree days 2744 2389  
Cooling Degree Days 11 11  
Month to date cooling degree days 219 218  
Year to date cooling degree days 308 336  
Growing Degree Days 26 (Base 50)    
Moisture  
Dew Point 69 °F    
Average Humidity 81    
Maximum Humidity 93    
Minimum Humidity 69    
Precipitation  
Precipitation 0.72 in 0.15 in 2.02 in (1912)
Month to date precipitation 6.31 4.10  
Year to date precipitation 31.53 23.83  
Sea Level Pressure  
Sea Level Pressure 29.88 in    
Wind  
Wind Speed 10 mph (SE)    
Max Wind Speed 25 mph    
Max Gust Speed 35 mph    
Visibility 9 miles    
Events Rain , Thunderstorm    
T = Trace of Precipitation, MM = Missing Value Source: NWS Daily Summary

Daily Weather History Graph

Daily Weather History Graph

Search for Another Location

Airport:

Trip Planner

Search our weather history database for the weather conditions in past years. The results will help you decide how hot, cold, wet, or windy it might be!

Date:

Astronomy

May. 29, 2014 Rise Set
Actual Time 5:55 AM CDT 8:00 PM CDT
Civil Twilight 5:27 AM CDT 8:28 PM CDT
Nautical Twilight 4:53 AM CDT 9:02 PM CDT
Astronomical Twilight 4:17 AM CDT 9:38 PM CDT
Moon 6:45 AM CDT (5/29) 8:53 PM CDT (5/29)
Length of Visible Light 15h 01m
Length of Day
14h 05m
New Moon, 1% of the Moon is Illuminated
May 29
New Moon
Jun 5
First Quarter
Jun 12
Full
Jun 19
Last Quarter
Jun 27
New

Hourly Weather History & Observations

Time (CDT) Temp. Heat Index Dew Point Humidity Pressure Visibility Wind Dir Wind Speed Gust Speed Precip Events Conditions
12:07 AM 69.8 °F - 66.2 °F 88% 29.87 in 10.0 mi SE 15.0 mph - N/A   Scattered Clouds
12:54 AM 69.8 °F - 66.2 °F 88% 29.88 in 10.0 mi SE 10.4 mph - N/A   Scattered Clouds
1:54 AM 70.0 °F - 66.9 °F 90% 29.87 in 10.0 mi SE 15.0 mph - N/A   Overcast
2:54 AM 70.0 °F - 66.9 °F 90% 29.86 in 10.0 mi SSE 17.3 mph 23.0 mph N/A   Overcast
3:54 AM 70.0 °F - 66.9 °F 90% 29.84 in 10.0 mi SSE 11.5 mph - N/A   Scattered Clouds
4:54 AM 70.0 °F - 66.9 °F 90% 29.86 in 10.0 mi SSE 11.5 mph - N/A   Partly Cloudy
5:23 AM 69.8 °F - 66.2 °F 88% 29.87 in 10.0 mi SSE 11.5 mph - N/A   Mostly Cloudy
5:54 AM 70.0 °F - 66.9 °F 90% 29.87 in 10.0 mi SSE 9.2 mph - N/A   Overcast
6:54 AM 70.0 °F - 66.9 °F 90% 29.88 in 10.0 mi SSE 9.2 mph - N/A   Overcast
7:39 AM 71.6 °F - 66.2 °F 83% 29.89 in 10.0 mi SSE 6.9 mph - 0.00 in Rain Light Rain
7:54 AM 71.1 °F - 68.0 °F 90% 29.88 in 10.0 mi SE 6.9 mph - 0.01 in Rain Light Rain
8:29 AM 71.6 °F - 68.0 °F 88% 29.91 in 10.0 mi SSE 9.2 mph - 0.00 in Rain Light Rain
8:54 AM 71.1 °F - 68.0 °F 90% 29.90 in 10.0 mi SE 9.2 mph - 0.00 in   Overcast
9:54 AM 73.0 °F - 69.1 °F 87% 29.91 in 10.0 mi SSE 10.4 mph - 0.02 in   Mostly Cloudy
10:01 AM 73.4 °F - 69.8 °F 88% 29.92 in 10.0 mi SSE 10.4 mph - N/A   Mostly Cloudy
10:08 AM 73.4 °F - 69.8 °F 88% 29.91 in 10.0 mi SSE 11.5 mph - N/A   Mostly Cloudy
10:54 AM 75.0 °F - 69.1 °F 82% 29.91 in 10.0 mi SE 8.1 mph - N/A   Overcast
11:08 AM 75.2 °F - 69.8 °F 83% 29.92 in 10.0 mi SE 11.5 mph - N/A   Overcast
11:54 AM 78.1 °F - 69.1 °F 74% 29.90 in 10.0 mi SE 13.8 mph 21.9 mph 0.00 in   Mostly Cloudy
12:54 PM 80.1 °F 82.9 °F 69.1 °F 69% 29.88 in 10.0 mi SE 10.4 mph - 0.00 in   Mostly Cloudy
1:01 PM 80.6 °F 83.9 °F 69.8 °F 70% 29.89 in 10.0 mi SSE 6.9 mph - N/A   Mostly Cloudy
1:54 PM 81.0 °F 84.1 °F 69.1 °F 67% 29.86 in 10.0 mi Variable 3.5 mph - 0.00 in   Mostly Cloudy
2:54 PM 73.0 °F - 68.0 °F 84% 29.86 in 3.0 mi ESE 20.7 mph 34.5 mph 0.07 in Rain Light Rain
3:07 PM 71.6 °F - 69.8 °F 94% 29.88 in 2.0 mi SE 13.8 mph - 0.11 in Rain Heavy Rain
3:32 PM 71.6 °F - 69.8 °F 94% 29.89 in 6.0 mi Calm Calm - 0.23 in Rain , Thunderstorm Light Thunderstorms and Rain
3:54 PM 71.6 °F - 69.8 °F 94% 29.89 in 7.0 mi East 4.6 mph - N/A Rain , Thunderstorm Light Thunderstorms and Rain
4:03 PM 71.6 °F - 68.0 °F 88% 29.89 in 9.0 mi ESE 4.6 mph - 0.00 in Rain Light Rain
4:54 PM 71.6 °F - 69.8 °F 94% 29.88 in 5.0 mi East 5.8 mph - N/A Rain Light Rain
5:13 PM 71.6 °F - 69.8 °F 94% 29.88 in 9.0 mi East 5.8 mph - 0.02 in Rain Light Rain
5:54 PM 72.0 °F - 70.0 °F 93% 29.86 in 7.0 mi ESE 10.4 mph - 0.04 in Rain Light Rain
6:54 PM 72.0 °F - 70.0 °F 93% 29.87 in 8.0 mi SE 10.4 mph - 0.13 in Rain Light Rain
7:54 PM 72.0 °F - 70.0 °F 93% 29.86 in 8.0 mi ESE 8.1 mph - 0.04 in Rain Light Rain
8:41 PM 71.6 °F - 69.8 °F 94% 29.88 in 10.0 mi SE 12.7 mph 19.6 mph 0.03 in Rain Light Rain
8:54 PM 71.1 °F - 69.1 °F 93% 29.88 in 10.0 mi SSE 12.7 mph - 0.03 in   Mostly Cloudy
9:11 PM 71.6 °F - 69.8 °F 94% 29.88 in 10.0 mi SE 13.8 mph - N/A   Mostly Cloudy
9:28 PM 71.6 °F - 69.8 °F 94% 29.89 in 10.0 mi SE 10.4 mph - N/A Rain Light Rain
9:54 PM 71.1 °F - 69.1 °F 93% 29.89 in 10.0 mi SE 11.5 mph 19.6 mph 0.00 in   Overcast
10:02 PM 71.6 °F - 69.8 °F 94% 29.90 in 10.0 mi SE 12.7 mph - N/A   Overcast
10:20 PM 71.6 °F - 69.8 °F 94% 29.91 in 10.0 mi SE 11.5 mph - N/A   Overcast
10:54 PM 71.1 °F - 69.1 °F 93% 29.91 in 10.0 mi SE 9.2 mph - N/A   Overcast
11:54 PM 72.0 °F - 69.1 °F 91% 29.90 in 10.0 mi SE 11.5 mph - 0.00 in   Overcast